Wind_Speed
11 10 10 10 10 11 11 10 9 9 9 9 9 9 9 9 9 9 8 8 8 8 7 7 7 6 6 5 5 4 5 3 2 1 0 1 2 3 4 5 6 6 7 7
10 10 10 10 11 10 10 9 9 8 9 9 8 8 8 9 9 9 9 9 8 7 7 7 8 7 7 6 6 6 5 5 4 2 1 0 2 2 3 4 5 5 6 6
10 10 10 10 10 10 9 10 9 8 8 8 8 8 9 9 9 9 9 9 8 7 7 7 7 8 8 7 7 7 6 6 5 3 2 1 1 2 3 4 5 5 5 6
11 10 10 10 9 9 9 9 9 9 9 8 8 7 8 8 8 9 10 10 9 8 7 7 8 8 8 7 7 7 7 7 6 4 3 2 1 1 2 3 4 4 5 5
11 10 10 10 9 9 9 9 9 8 7 8 8 7 7 7 8 8 9 10 10 8 7 7 8 9 9 8 8 8 8 8 7 5 4 3 2 1 1 3 3 3 4 5
11 11 10 9 9 9 9 9 8 7 7 8 8 8 6 6 7 7 9 10 10 9 8 8 9 9 9 8 8 8 8 8 7 6 6 4 3 2 1 1 2 2 3 4
11 11 10 9 9 9 8 8 8 8 7 7 8 7 6 6 7 8 8 9 9 9 9 8 9 9 9 9 9 9 8 7 7 6 6 5 4 3 2 0 1 2 3 4
12 12 11 10 9 9 8 8 8 8 8 7 7 7 7 7 8 8 8 8 9 9 9 9 9 9 9 8 9 9 8 7 7 7 7 6 5 4 3 2 2 1 1 2
12 12 12 11 10 10 9 7 8 9 8 8 7 7 8 8 8 8 8 8 8 9 9 9 9 9 9 9 8 9 8 8 7 8 8 7 6 5 4 3 3 2 1 1
12 12 12 11 11 11 10 8 9 9 9 7 7 7 7 7 7 8 8 8 8 8 9 10 10 9 10 10 9 8 8 8 8 8 8 8 7 6 5 5 4 3 2 2
13 13 13 13 12 11 11 10 10 9 9 9 8 6 6 6 7 7 8 8 9 8 9 9 10 10 10 10 9 9 9 9 9 9 9 8 7 7 7 6 5 4 3 3
14 13 13 14 12 12 11 11 10 10 10 10 8 7 7 7 7 8 8 9 9 9 9 9 10 10 10 10 10 9 10 10 9 9 10 9 9 9 8 7 7 6 6 6
15 15 14 14 14 13 12 12 11 11 11 10 10 8 8 8 7 8 9 9 9 9 9 9 9 10 10 10 10 9 10 10 10 10 10 10 10 10 10 9 8 8 8 7
17 16 15 14 14 14 13 12 12 11 11 10 10 9 8 8 8 9 9 9 9 9 9 9 9 9 10 11 10 10 10 11 11 11 11 10 11 11 11 10 10 10 9 9
18 17 16 15 15 15 14 13 12 12 11 10 9 9 9 9 9 8 9 10 9 9 9 9 9 9 10 11 11 11 11 11 11 11 12 12 11 12 12 12 12 12 11 11
18 18 17 16 16 15 15 13 13 12 12 11 10 10 8 8 9 9 9 9 10 10 10 10 10 10 10 11 11 12 12 12 12 12 12 12 12 12 13 13 13 13 12 12
19 19 19 18 16 16 16 14 13 12 12 11 11 10 9 9 8 8 8 9 10 10 11 11 11 11 11 11 12 12 13 13 13 12 12 12 12 13 13 14 14 14 14 14
19 20 21 19 18 17 15 15 14 13 12 12 11 10 10 9 9 8 8 9 10 11 11 11 11 11 12 12 12 13 14 13 13 13 13 13 13 13 14 15 16 16 16 16
20 20 21 19 19 18 16 15 14 14 13 13 12 11 10 10 10 10 9 9 10 11 12 12 12 12 12 13 13 14 14 14 14 14 14 15 15 15 15 15 16 16 17 17
22 22 22 21 20 19 17 16 15 15 14 13 13 12 12 12 12 11 11 10 11 11 12 13 13 13 13 13 13 14 15 14 15 15 15 16 16 17 17 17 17 17 18 18
23 23 22 22 21 19 17 16 16 15 13 13 13 13 13 12 12 12 12 12 12 12 12 13 13 14 14 14 14 14 14 15 15 16 16 16 17 17 18 17 18 18 19 19
22 22 22 22 21 17 17 17 16 14 14 14 14 13 13 13 13 14 13 13 13 13 12 13 14 14 15 15 16 16 15 16 16 17 17 18 18 19 19 19 19 20 20 20
23 22 22 22 21 18 16 17 16 15 14 14 14 13 13 13 14 13 13 14 13 13 13 13 14 14 15 15 16 17 17 17 17 18 19 20 20 20 20 20 20 20 21 21
24 24 24 22 20 19 19 18 17 16 15 14 14 14 14 15 15 14 14 14 14 13 13 14 14 14 15 16 16 17 17 18 18 19 20 21 22 22 21 21 21 22 22 22
26 25 25 24 22 22 21 20 19 18 17 16 15 15 15 16 16 15 15 15 14 14 13 13 14 15 15 15 16 17 17 18 19 19 19 20 21 21 22 22 22 22 22 23
27 27 27 26 24 24 23 22 21 20 19 18 18 17 16 16 15 16 16 16 16 16 16 15 15 15 15 15 16 17 18 18 19 19 19 19 20 21 21 22 23 23 24 24
Wind_Direction
253 254 256 259 260 262 263 262 258 255 251 247 249 247 245 237 237 243 242 242 239 232 230 225 225 226 225 224 221 222 208 208 213 222 293 12 20 27 30 31 32 37 44 44
250 250 252 256 259 262 262 262 259 250 247 253 250 243 241 238 237 241 238 235 235 231 229 223 220 221 222 222 221 220 213 214 211 204 209 12 17 24 24 29 30 39 46 46
252 250 255 259 261 258 260 262 257 253 247 254 254 240 237 237 239 238 232 229 227 225 220 223 220 219 222 222 219 215 213 215 207 202 210 222 11 20 20 23 26 37 42 43
250 254 258 261 260 256 255 257 256 259 251 249 247 242 240 237 237 231 223 219 219 215 215 221 222 222 219 215 214 214 214 214 209 207 211 210 261 10 23 21 28 43 43 43
251 254 257 258 258 255 253 252 259 262 244 243 245 248 243 235 227 222 215 212 210 209 212 217 216 216 215 211 212 215 213 212 214 215 213 219 236 250 36 36 40 51 46 46
249 249 253 252 250 249 248 249 253 248 238 239 240 244 241 233 222 216 211 210 209 209 211 212 214 215 213 211 213 212 211 213 215 217 220 223 225 217 167 49 47 57 56 52
243 245 246 244 244 244 244 244 249 245 238 242 238 239 232 233 219 215 212 207 210 212 212 212 210 210 212 212 212 212 216 214 214 215 218 216 214 208 200 170 87 76 61 56
241 244 242 240 240 244 245 241 245 248 245 242 241 236 227 224 217 211 208 204 205 212 213 212 207 208 210 207 210 216 218 216 217 215 214 212 213 207 206 198 159 116 68 44
239 241 237 235 232 235 236 238 240 242 247 244 242 234 229 222 220 217 213 205 204 203 204 206 207 208 211 213 215 219 217 217 218 217 213 213 214 209 211 200 199 211 244 320
236 233 233 231 230 230 232 238 240 240 242 244 238 231 228 221 223 220 215 205 201 199 203 201 202 209 214 219 222 222 219 219 216 217 218 214 214 220 221 213 220 236 248 269
231 230 228 230 228 230 233 235 239 242 243 246 236 234 231 228 225 222 215 204 201 202 204 205 207 213 219 220 220 223 224 219 218 218 217 216 216 222 220 217 225 235 250 262
231 230 229 228 227 228 231 234 240 242 244 250 246 237 235 234 223 220 212 205 204 204 208 210 212 215 220 220 222 227 227 223 225 224 222 223 227 226 221 226 234 241 250 260
231 231 232 227 226 225 229 232 237 239 244 245 243 244 241 236 222 215 211 209 214 211 212 211 213 215 220 223 224 229 226 225 226 228 230 233 237 229 224 230 239 247 252 258
230 230 232 232 229 227 226 232 239 243 243 243 245 247 242 225 217 212 214 213 215 215 217 218 217 218 224 229 228 231 228 226 229 233 236 237 237 232 232 235 240 247 253 256
229 230 228 229 228 227 226 227 236 244 243 245 244 239 238 228 223 221 221 218 217 217 222 227 228 229 231 231 229 231 231 230 232 235 237 239 238 237 239 242 244 247 250 253
228 229 226 227 229 228 228 227 232 240 240 241 241 239 239 232 233 230 227 225 221 223 226 232 234 235 236 234 233 233 232 231 235 239 239 235 237 240 244 247 249 249 250 253
229 229 229 230 229 228 230 232 234 236 236 238 241 238 237 233 233 232 230 226 225 229 232 236 240 240 238 237 237 236 232 234 239 242 240 238 241 244 248 251 253 253 254 258
228 230 231 230 229 231 231 233 237 237 235 236 235 234 233 237 236 234 233 232 234 237 238 239 241 240 238 240 239 235 235 237 241 243 240 240 245 248 251 254 255 255 257 261
228 228 228 229 230 230 231 232 236 235 233 232 231 231 232 238 241 240 238 238 242 244 241 240 240 239 239 241 240 238 238 239 242 245 245 246 249 252 254 258 260 260 260 262
231 230 229 230 233 232 232 232 233 234 232 230 233 233 234 238 242 242 244 247 250 245 241 239 238 240 239 240 241 240 240 241 245 247 247 251 253 255 258 261 262 264 266 265
234 232 231 231 233 232 229 229 231 234 235 234 235 236 237 240 243 244 247 249 253 253 244 242 243 243 242 241 243 244 245 246 249 252 252 254 256 258 261 264 265 266 267 267
234 235 235 233 234 229 226 227 231 233 233 236 237 239 239 241 242 244 246 250 256 254 251 247 245 246 246 245 245 247 249 251 252 254 255 256 258 260 263 264 266 267 267 267
235 236 237 235 235 232 228 227 226 227 232 238 240 243 244 241 240 242 246 251 255 253 254 253 250 249 249 249 249 249 249 252 257 258 256 256 259 261 263 263 266 268 268 267
233 233 233 233 232 232 230 227 228 229 233 236 239 241 244 244 243 246 250 253 255 255 256 256 256 258 256 252 251 251 253 255 259 260 261 259 259 260 262 264 267 270 270 270
230 231 232 231 230 232 232 228 229 231 232 234 237 240 244 247 247 250 253 256 257 257 256 258 259 259 259 257 256 257 258 260 261 264 264 264 263 262 265 266 268 270 271 272
230 231 231 230 230 231 230 230 231 233 234 236 238 243 247 249 250 253 254 255 256 256 257 259 261 262 260 259 261 262 262 264 265 265 266 267 268 267 267 268 269 270 272 273
Height
5867 5868 5868 5868 5868 5868 5867 5868 5868 5868 5868 5869 5869 5870 5871 5871 5873 5873 5875 5876 5876 5877 5878 5879 5881 5882 5883 5884 5884 5885 5886 5887 5887 5887 5887 5886 5885 5884 5883 5882 5881 5879 5878 5877
5866 5866 5866 5865 5865 5865 5865 5865 5866 5866 5866 5866 5867 5868 5868 5869 5870 5871 5872 5874 5875 5875 5876 5878 5879 5880 5881 5882 5883 5884 5885 5885 5886 5886 5886 5886 5885 5884 5883 5882 5881 5880 5879 5878
5863 5864 5863 5863 5863 5863 5863 5863 5864 5864 5864 5864 5865 5866 5866 5867 5868 5869 5870 5871 5873 5874 5875 5876 5877 5879 5880 5881 5882 5883 5884 5884 5885 5885 5885 5885 5885 5884 5883 5882 5882 5881 5880 5879
5860 5860 5860 5860 5860 5861 5861 5861 5861 5862 5862 5862 5863 5864 5864 5864 5865 5866 5868 5869 5870 5872 5873 5874 5875 5877 5878 5879 5880 5881 5882 5883 5884 5884 5884 5885 5884 5884 5883 5883 5882 5881 5880 5879
5858 5858 5858 5858 5859 5859 5859 5859 5859 5859 5860 5861 5861 5862 5863 5863 5864 5865 5866 5867 5868 5870 5871 5872 5874 5875 5876 5877 5879 5880 5881 5882 5883 5883 5884 5884 5884 5884 5883 5883 5882 5882 5881 5880
5855 5855 5855 5855 5856 5857 5857 5857 5857 5857 5858 5859 5860 5860 5861 5862 5862 5863 5864 5865 5866 5868 5869 5870 5872 5873 5874 5876 5877 5878 5879 5880 5881 5882 5882 5883 5883 5884 5883 5883 5882 5882 5881 5881
5852 5853 5853 5853 5854 5854 5855 5856 5856 5856 5856 5857 5857 5858 5860 5860 5860 5861 5862 5863 5864 5865 5867 5868 5870 5871 5873 5874 5875 5877 5878 5879 5880 5881 5881 5882 5883 5883 5883 5883 5883 5882 5882 5881
5849 5850 5851 5851 5852 5852 5853 5854 5855 5855 5855 5855 5855 5856 5858 5858 5858 5859 5860 5861 5862 5864 5865 5867 5868 5870 5871 5872 5873 5875 5876 5877 5878 5879 5880 5881 5882 5882 5883 5883 5883 5882 5882 5882
5846 5847 5848 5848 5849 5850 5851 5851 5853 5853 5853 5853 5854 5854 5855 5855 5856 5857 5858 5859 5860 5862 5863 5865 5866 5868 5869 5871 5872 5873 5874 5876 5877 5878 5879 5880 5881 5881 5882 5882 5882 5882 5882 5882
5843 5844 5845 5846 5847 5848 5849 5849 5850 5851 5851 5851 5852 5852 5853 5853 5854 5855 5856 5857 5859 5860 5862 5863 5865 5866 5868 5869 5870 5871 5872 5874 5875 5876 5877 5878 5879 5880 5881 5881 5881 5881 5881 5881
5839 5841 5843 5843 5844 5845 5847 5848 5848 5849 5849 5850 5850 5853 5851 5852 5852 5853 5854 5856 5857 5859 5860 5861 5863 5865 5866 5867 5868 5870 5871 5872 5873 5875 5876 5877 5878 5878 5879 5880 5880 5880 5880 5880
5836 5838 5839 5841 5842 5842 5844 5845 5846 5847 5847 5848 5848 5852 5849 5850 5851 5852 5853 5854 5856 5857 5858 5860 5861 5863 5864 5866 5866 5868 5869 5870 5871 5872 5874 5875 5876 5877 5877 5878 5878 5879 5879 5879
5833 5835 5836 5837 5840 5840 5841 5842 5843 5844 5845 5845 5846 5850 5847 5848 5849 5850 5851 5853 5854 5856 5857 5858 5860 5861 5862 5863 5864 5866 5867 5868 5869 5870 5871 5872 5873 5874 5875 5876 5876 5877 5877 5877
5829 5831 5834 5835 5836 5837 5838 5840 5841 5842 5842 5843 5844 5845 5846 5846 5847 5848 5850 5851 5852 5854 5855 5856 5858 5859 5860 5861 5862 5864 5865 5866 5867 5868 5869 5870 5871 5872 5873 5873 5874 5874 5874 5874
5825 5827 5829 5831 5832 5833 5835 5836 5838 5839 5840 5841 5842 5843 5844 5844 5845 5846 5847 5849 5850 5851 5853 5854 5856 5857 5858 5859 5860 5861 5862 5863 5864 5865 5866 5867 5868 5869 5870 5870 5871 5871 5872 5872
5821 5823 5825 5827 5829 5830 5831 5833 5834 5835 5837 5838 5839 5840 5841 5842 5843 5844 5845 5846 5848 5849 5851 5852 5853 5854 5855 5856 5857 5858 5859 5860 5861 5863 5863 5864 5865 5866 5867 5867 5867 5868 5868 5868
5817 5820 5822 5823 5825 5826 5829 5831 5832 5833 5834 5835 5837 5839 5838 5839 5840 5842 5843 5844 5845 5847 5848 5849 5850 5851 5852 5853 5854 5855 5856 5857 5858 5859 5860 5861 5862 5863 5863 5864 5864 5864 5864 5864
5813 5815 5817 5819 5822 5823 5828 5827 5828 5830 5831 5833 5834 5835 5836 5837 5838 5839 5841 5842 5843 5844 5845 5846 5847 5848 5849 5850 5851 5852 5853 5854 5855 5856 5857 5858 5858 5859 5859 5860 5860 5860 5860 5860
5808 5811 5813 5815 5817 5820 5823 5824 5825 5826 5828 5829 5831 5832 5833 5834 5836 5837 5838 5839 5840 5841 5842 5843 5844 5845 5846 5847 5848 5848 5849 5850 5851 5852 5853 5854 5855 5855 5855 5855 5856 5856 5856 5856
5804 5806 5809 5811 5813 5815 5820 5821 5821 5824 5825 5827 5828 5829 5831 5832 5833 5835 5835 5836 5837 5837 5838 5839 5840 5841 5842 5843 5844 5845 5846 5847 5848 5848 5849 5850 5850 5851 5851 5851 5851 5851 5851 5851
5798 5801 5803 5806 5808 5811 5815 5816 5818 5821 5823 5824 5825 5826 5828 5829 5831 5832 5832 5833 5833 5834 5834 5835 5836 5837 5838 5839 5840 5841 5842 5843 5844 5844 5845 5845 5845 5846 5846 5846 5846 5846 5846 5846
5794 5796 5799 5801 5804 5809 5810 5812 5815 5817 5818 5819 5821 5823 5824 5826 5827 5828 5829 5829 5830 5830 5831 5831 5832 5833 5834 5835 5836 5837 5838 5838 5839 5839 5840 5840 5840 5841 5841 5841 5841 5841 5841 5841
5788 5792 5794 5798 5802 5804 5806 5808 5810 5812 5814 5815 5817 5819 5820 5821 5823 5824 5825 5826 5826 5827 5827 5828 5828 5829 5829 5830 5831 5832 5832 5833 5834 5834 5835 5835 5835 5835 5835 5836 5836 5835 5835 5835
5783 5785 5788 5791 5795 5798 5800 5803 5806 5808 5810 5812 5813 5815 5816 5818 5819 5820 5821 5822 5822 5823 5823 5824 5824 5824 5825 5826 5826 5827 5827 5828 5828 5829 5829 5829 5830 5830 5830 5830 5830 5830 5829 5829
5777 5779 5782 5785 5789 5792 5795 5798 5801 5803 5805 5807 5809 5811 5812 5814 5815 5816 5817 5818 5818 5818 5819 5819 5820 5820 5821 5821 5821 5822 5822 5823 5823 5823 5823 5823 5823 5823 5824 5824 5824 5823 5823 5823
5770 5773 5776 5780 5784 5786 5789 5792 5796 5798 5800 5803 5805 5806 5808 5809 5810 5811 5812 5813 5814 5814 5815 5815 5816 5816 5816 5816 5817 5817 5817 5817 5818 5818 5817 5818 5818 5817 5817 5817 5817 5817 5817 5816